Ellsworth AFB, SD

8:34 AM MST on February 20, 2017 (GMT -0700)
Ellsworth Air Force Base

Weather History for KRCA - October, 2012

Change the Weather History Date:

Thursday, October 4, 2012

  Actual Average Record
Temperature  
Mean Temperature 39 °F -  
Max Temperature 47 °F 64 °F 88 °F (2011)
Min Temperature 32 °F 40 °F 30 °F (1999)
Degree Days  
Heating Degree Days 26    
Moisture  
Dew Point 29 °F    
Average Humidity 70    
Maximum Humidity 87    
Minimum Humidity 44    
Precipitation  
Precipitation 0.00 in - - ()
Sea Level Pressure  
Sea Level Pressure 30.39 in    
Wind  
Wind Speed 20 mph (NNW)    
Max Wind Speed 29 mph    
Max Gust Speed 43 mph    
Visibility 10 miles    
Events Rain    
Averages and records for this station are not official NWS values.
T = Trace of Precipitation, MM = Missing Value Source: NWS Daily Summary

Daily Weather History Graph

Daily Weather History Graph

Search for Another Location

Airport or City:

Trip Planner

Search our weather history database for the weather conditions in past years. The results will help you decide how hot, cold, wet, or windy it might be!

Date:

Astronomy

Oct. 04, 2012 Rise Set
Actual Time 6:54 AM MDT 6:26 PM MDT
Civil Twilight 6:25 AM MDT 6:55 PM MDT
Nautical Twilight 5:51 AM MDT 7:29 PM MDT
Astronomical Twilight 5:18 AM MDT 8:02 PM MDT
Moon 8:54 PM MDT (10/4) 11:23 AM MDT (10/4)
Length of Visible Light 12h 30m
Length of Day
11h 32m
Waning Gibbous, 81% of the Moon is Illuminated
Oct 4
Waning Gibbous
Oct 8
Last Quarter
Oct 15
New
Oct 21
First Quarter
Oct 29
Full

Hourly Weather History & Observations

Time (MDT) Temp. Windchill Dew Point Humidity Pressure Visibility Wind Dir Wind Speed Gust Speed Precip Events Conditions
12:01 AM 37.4 °F 26.4 °F 33.8 °F 87% 30.33 in 10.0 mi NNW 23.0 mph 35.7 mph N/A   Overcast
12:15 AM 37.4 °F 25.9 °F 32.0 °F 81% 30.33 in 10.0 mi NNW 25.3 mph 33.4 mph N/A   Overcast
12:16 AM 37.4 °F 25.9 °F 32.0 °F 81% 30.34 in 10.0 mi NNW 25.3 mph 33.4 mph N/A   Overcast
12:18 AM 37.4 °F 25.9 °F 32.0 °F 81% 30.34 in 10.0 mi NNW 25.3 mph 33.4 mph N/A Rain Light Rain
12:26 AM 37.4 °F 25.4 °F 33.8 °F 87% 30.34 in 10.0 mi NNW 27.6 mph 42.6 mph N/A Rain Light Rain
12:29 AM 37.4 °F 25.4 °F 33.8 °F 87% 30.34 in 10.0 mi NNW 27.6 mph 42.6 mph N/A Rain Light Rain
12:34 AM 37.4 °F 25.9 °F 32.0 °F 81% 30.34 in 10.0 mi NNW 25.3 mph 42.6 mph N/A Rain Light Rain
12:40 AM 37.4 °F 26.4 °F 32.0 °F 81% 30.35 in 10.0 mi NNW 23.0 mph 34.5 mph N/A   Light Drizzle
12:41 AM 37.4 °F 26.1 °F 32.0 °F 81% 30.35 in 10.0 mi NNW 24.2 mph 33.4 mph N/A   Overcast
12:48 AM 37.4 °F 25.2 °F 30.2 °F 75% 30.34 in 10.0 mi NNW 28.8 mph - N/A   Overcast
12:55 AM 36.9 °F 24.9 °F 30.9 °F 79% 30.35 in 10.0 mi NNW 26.5 mph 35.7 mph N/A   Overcast
1:11 AM 35.6 °F 23.7 °F 30.2 °F 81% 30.35 in 10.0 mi NNW 24.2 mph 33.4 mph N/A   Mostly Cloudy
1:55 AM 36.0 °F 23.5 °F 30.0 °F 79% 30.36 in 10.0 mi NNW 27.6 mph 35.7 mph N/A   Mostly Cloudy
2:55 AM 35.1 °F 24.1 °F 30.4 °F 83% 30.39 in 10.0 mi NNW 19.6 mph - N/A   Mostly Cloudy
3:51 AM 35.6 °F 25.9 °F 30.2 °F 81% 30.41 in 10.0 mi NNW 16.1 mph - N/A   Overcast
3:55 AM 35.2 °F 25.8 °F 30.6 °F 83% 30.41 in 10.0 mi NNW 15.0 mph 25.3 mph N/A   Overcast
4:16 AM 35.6 °F 26.2 °F 30.2 °F 81% 30.40 in 10.0 mi NNW 15.0 mph - N/A   Overcast
4:26 AM 35.6 °F 27.1 °F 30.2 °F 81% 30.41 in 10.0 mi North 12.7 mph - N/A   Overcast
4:31 AM 35.6 °F 25.5 °F 30.2 °F 81% 30.41 in 10.0 mi NNW 17.3 mph - N/A   Overcast
4:55 AM 34.2 °F 23.3 °F 29.7 °F 84% 30.41 in 10.0 mi NNW 18.4 mph - N/A   Scattered Clouds
5:55 AM 32.7 °F 23.0 °F 28.8 °F 85% 30.43 in 10.0 mi NW 13.8 mph - N/A   Scattered Clouds
6:55 AM 34.9 °F 26.6 °F 29.5 °F 81% 30.43 in 10.0 mi NNW 11.5 mph - N/A   Overcast
7:55 AM 36.0 °F 26.7 °F 27.5 °F 71% 30.44 in 10.0 mi NW 15.0 mph - N/A   Overcast
8:55 AM 37.2 °F 27.6 °F 26.6 °F 65% 30.44 in 10.0 mi NNW 17.3 mph - N/A   Mostly Cloudy
9:55 AM 39.4 °F 30.1 °F 26.8 °F 61% 30.44 in 10.0 mi NNW 18.4 mph - N/A   Overcast
10:55 AM 41.2 °F 33.7 °F 27.1 °F 57% 30.44 in 10.0 mi NNW 13.8 mph - N/A   Overcast
11:55 AM 41.7 °F 34.4 °F 25.5 °F 53% 30.43 in 10.0 mi North 13.8 mph - N/A   Overcast
12:55 PM 42.3 °F 34.1 °F 27.9 °F 57% 30.41 in 10.0 mi North 17.3 mph - N/A   Overcast
1:55 PM 43.7 °F 37.3 °F 27.9 °F 54% 30.39 in 10.0 mi North 12.7 mph - N/A   Overcast
2:55 PM 46.2 °F 38.7 °F 25.2 °F 44% 30.36 in 10.0 mi North 19.6 mph 23.0 mph N/A   Scattered Clouds
3:55 PM 45.3 °F 38.4 °F 25.5 °F 46% 30.35 in 10.0 mi North 16.1 mph 21.9 mph N/A   Mostly Cloudy
4:55 PM 44.4 °F 37.2 °F 26.6 °F 50% 30.38 in 10.0 mi North 16.1 mph - N/A   Mostly Cloudy
5:55 PM 43.9 °F 37.5 °F 25.3 °F 48% 30.39 in 10.0 mi North 12.7 mph - N/A   Overcast
6:55 PM 42.8 °F 39.3 °F 24.4 °F 48% 30.40 in 10.0 mi NNE 5.8 mph - N/A   Overcast
7:55 PM 41.0 °F 36.4 °F 23.9 °F 51% 30.41 in 10.0 mi NNE 6.9 mph - N/A   Scattered Clouds
8:55 PM 40.1 °F 38.0 °F 23.9 °F 52% 30.42 in 10.0 mi NNE 3.5 mph - N/A   Overcast
9:55 PM 39.9 °F 36.7 °F 24.3 °F 54% 30.42 in 10.0 mi North 4.6 mph - N/A   Overcast
10:55 PM 39.4 °F 35.2 °F 24.6 °F 56% 30.40 in 10.0 mi North 5.8 mph - N/A   Overcast
11:55 PM 38.8 °F 35.4 °F 24.4 °F 56% 30.40 in 10.0 mi NNE 4.6 mph - N/A   Overcast